When you browse on this site, cookies collect data to enhance your experience and personalize the content and advertising you see.
Visit our Privacy Policy to learn more. By continuing to use the site, you agree to this use of cookies and data.
  • In Romania
  • List of Countries
  • For 7 days
  • Water Temperature
  • Satellite Maps
  • Weather Map
  • Weather Widgets
  • user-avatar
    Login

    Hourly Weather Ishimovo

    Today, 24 July, Wednesday

    Time Temperature Precipitation Wind Pressure Humidity
    00:00 +15°C° 0 mm 1 mps 748 mmHg 95%
    01:00 +14°C° 0 mm 1 mps 748 mmHg 95%
    02:00 +14°C° 0 mm 1 mps 748 mmHg 96%
    03:00 +13°C° 0 mm 1 mps 748 mmHg 96%
    04:00 +12°C° 0 mm 0 mps 748 mmHg 97%
    05:00 +14°C° 0 mm 1 mps 749 mmHg 95%
    06:00 +15°C° 0 mm 1 mps 749 mmHg 94%
    07:00 +16°C° 0 mm 1 mps 749 mmHg 93%
    08:00 +18°C° 0 mm 1 mps 749 mmHg 89%
    09:00 +18°C° 0 mm 2 mps 749 mmHg 86%
    10:00 +19°C° 0 mm 2 mps 749 mmHg 82%
    11:00 +20°C° 0 mm 2 mps 749 mmHg 79%
    12:00 +21°C° 0 mm 2 mps 749 mmHg 75%
    13:00 +22°C° 0 mm 3 mps 749 mmHg 71%
    14:00 +24°C° 0.1 mm 3 mps 749 mmHg 71%
    15:00 +24°C° 0.1 mm 3 mps 749 mmHg 72%
    16:00 +24°C° 0.1 mm 3 mps 749 mmHg 72%
    17:00 +22°C° 0.1 mm 3 mps 749 mmHg 77%
    18:00 +23°C° 0.1 mm 2 mps 749 mmHg 82%
    19:00 +22°C° 0.1 mm 1 mps 749 mmHg 88%
    20:00 +21°C° 0 mm 1 mps 749 mmHg 90%
    21:00 +19°C° 0 mm 1 mps 750 mmHg 92%
    22:00 +18°C° 0 mm 1 mps 750 mmHg 95%
    23:00 +18°C° 0 mm 1 mps 750 mmHg 94%

    Tomorrow, 25 July, Thursday

    Time Temperature Precipitation Wind Pressure Humidity
    00:00 +16°C° 0 mm 1 mps 750 mmHg 94%
    01:00 +16°C° 0 mm 1 mps 750 mmHg 93%
    02:00 +15°C° 0 mm 1 mps 750 mmHg 93%
    03:00 +15°C° 0 mm 1 mps 750 mmHg 92%
    04:00 +15°C° 0 mm 1 mps 750 mmHg 91%
    05:00 +16°C° 0 mm 1 mps 751 mmHg 87%
    06:00 +19°C° 0 mm 1 mps 751 mmHg 84%
    07:00 +20°C° 0 mm 1 mps 751 mmHg 81%
    08:00 +22°C° 0 mm 1 mps 751 mmHg 73%
    09:00 +24°C° 0 mm 1 mps 751 mmHg 66%
    10:00 +26°C° 0 mm 1 mps 751 mmHg 58%
    11:00 +26°C° 0 mm 2 mps 751 mmHg 59%
    12:00 +26°C° 0 mm 2 mps 751 mmHg 59%
    13:00 +27°C° 0 mm 2 mps 751 mmHg 60%
    14:00 +27°C° 0 mm 2 mps 751 mmHg 60%
    15:00 +27°C° 0 mm 2 mps 751 mmHg 60%
    16:00 +27°C° 0 mm 2 mps 751 mmHg 60%
    17:00 +26°C° 0 mm 2 mps 751 mmHg 66%
    18:00 +25°C° 0 mm 2 mps 751 mmHg 72%
    19:00 +24°C° 0 mm 2 mps 751 mmHg 78%
    20:00 +21°C° 0 mm 2 mps 751 mmHg 79%
    21:00 +21°C° 0 mm 1 mps 751 mmHg 81%
    22:00 +19°C° 0 mm 1 mps 751 mmHg 83%
    23:00 +19°C° 0 mm 1 mps 751 mmHg 84%

    Day after tomorrow, 26 July, Friday

    Time Temperature Precipitation Wind Pressure Humidity
    00:00 +18°C° 0 mm 1 mps 751 mmHg 84%
    01:00 +18°C° 0 mm 1 mps 751 mmHg 84%
    02:00 +16°C° 0 mm 1 mps 751 mmHg 85%
    03:00 +16°C° 0 mm 1 mps 751 mmHg 86%
    04:00 +15°C° 0 mm 1 mps 751 mmHg 86%
    05:00 +18°C° 0 mm 1 mps 751 mmHg 83%
    06:00 +19°C° 0 mm 1 mps 751 mmHg 79%
    07:00 +21°C° 0 mm 1 mps 751 mmHg 76%
    08:00 +22°C° 0 mm 1 mps 751 mmHg 71%
    09:00 +24°C° 0 mm 1 mps 751 mmHg 65%
    10:00 +25°C° 0 mm 1 mps 751 mmHg 60%
    11:00 +26°C° 0 mm 1 mps 751 mmHg 57%
    12:00 +27°C° 0 mm 2 mps 750 mmHg 55%
    13:00 +27°C° 0 mm 2 mps 750 mmHg 52%
    14:00 +27°C° 0 mm 2 mps 750 mmHg 53%
    15:00 +28°C° 0 mm 2 mps 749 mmHg 53%
    16:00 +28°C° 0 mm 2 mps 749 mmHg 54%
    17:00 +26°C° 0 mm 2 mps 749 mmHg 60%
    18:00 +25°C° 0 mm 2 mps 749 mmHg 67%
    19:00 +24°C° 0 mm 2 mps 748 mmHg 73%
    20:00 +21°C° 0 mm 2 mps 748 mmHg 74%
    21:00 +19°C° 0 mm 2 mps 748 mmHg 75%
    22:00 +18°C° 0 mm 2 mps 749 mmHg 76%
    23:00 +17°C° 0 mm 2 mps 748 mmHg 76%

    27 July, Saturday

    Time Temperature Precipitation Wind Pressure Humidity
    00:00 +17°C° 0 mm 2 mps 748 mmHg 77%
    01:00 +16°C° 0 mm 2 mps 748 mmHg 78%
    02:00 +16°C° 0 mm 2 mps 747 mmHg 80%
    03:00 +15°C° 0 mm 2 mps 747 mmHg 81%
    04:00 +15°C° 0 mm 2 mps 747 mmHg 83%
    05:00 +16°C° 0 mm 2 mps 747 mmHg 81%
    06:00 +17°C° 0 mm 2 mps 747 mmHg 79%
    07:00 +18°C° 0 mm 2 mps 747 mmHg 77%
    08:00 +20°C° 0 mm 2 mps 746 mmHg 70%
    09:00 +23°C° 0 mm 2 mps 746 mmHg 64%
    10:00 +25°C° 0 mm 2 mps 746 mmHg 57%
    11:00 +26°C° 0 mm 1 mps 745 mmHg 54%
    12:00 +26°C° 0 mm 1 mps 745 mmHg 50%
    13:00 +27°C° 0 mm 1 mps 744 mmHg 47%
    14:00 +27°C° 0 mm 1 mps 744 mmHg 50%
    15:00 +27°C° 0 mm 1 mps 744 mmHg 52%
    16:00 +27°C° 0 mm 2 mps 743 mmHg 55%
    17:00 +26°C° 0 mm 2 mps 743 mmHg 62%
    18:00 +25°C° 0 mm 2 mps 742 mmHg 70%
    19:00 +23°C° 0 mm 1 mps 742 mmHg 77%
    20:00 +21°C° 0 mm 2 mps 741 mmHg 78%
    21:00 +20°C° 0 mm 2 mps 741 mmHg 79%
    22:00 +19°C° 0 mm 2 mps 741 mmHg 80%
    23:00 +18°C° 0 mm 2 mps 740 mmHg 80%

    28 July, Sunday

    Time Temperature Precipitation Wind Pressure Humidity
    00:00 +19°C° 0 mm 1 mps 740 mmHg 80%
    01:00 +19°C° 0 mm 1 mps 739 mmHg 80%
    02:00 +19°C° 0 mm 1 mps 739 mmHg 78%
    03:00 +19°C° 0 mm 1 mps 738 mmHg 77%
    04:00 +18°C° 0 mm 2 mps 738 mmHg 75%
    05:00 +18°C° 0 mm 2 mps 737 mmHg 76%
    06:00 +19°C° 0 mm 2 mps 737 mmHg 77%
    07:00 +20°C° 0 mm 2 mps 736 mmHg 78%
    08:00 +21°C° 0 mm 2 mps 736 mmHg 76%
    09:00 +23°C° 0 mm 2 mps 735 mmHg 74%
    10:00 +24°C° 0 mm 1 mps 735 mmHg 72%
    11:00 +25°C° 0 mm 2 mps 734 mmHg 68%
    12:00 +26°C° 0 mm 2 mps 734 mmHg 65%
    13:00 +27°C° 0 mm 3 mps 733 mmHg 61%
    14:00 +26°C° 0.2 mm 3 mps 733 mmHg 66%
    15:00 +26°C° 0.2 mm 3 mps 732 mmHg 70%
    16:00 +25°C° 0.2 mm 3 mps 732 mmHg 74%
    17:00 +22°C° 0.2 mm 4 mps 732 mmHg 78%
    18:00 +21°C° 0.2 mm 5 mps 732 mmHg 82%
    19:00 +20°C° 0.2 mm 6 mps 732 mmHg 87%
    20:00 +17°C° 0.1 mm 5 mps 732 mmHg 89%
    21:00 +16°C° 0.1 mm 5 mps 732 mmHg 92%
    22:00 +14°C° 0.1 mm 4 mps 732 mmHg 94%
    23:00 +13°C° 0.1 mm 4 mps 732 mmHg 94%

    29 July, Monday

    Time Temperature Precipitation Wind Pressure Humidity
    00:00 +13°C° 0.1 mm 4 mps 732 mmHg 94%
    01:00 +12°C° 0.1 mm 4 mps 733 mmHg 94%
    02:00 +12°C° 0 mm 4 mps 733 mmHg 94%
    03:00 +11°C° 0 mm 4 mps 733 mmHg 93%
    04:00 +11°C° 0 mm 3 mps 733 mmHg 92%
    05:00 +11°C° 0 mm 3 mps 733 mmHg 90%
    06:00 +11°C° 0 mm 3 mps 734 mmHg 89%
    07:00 +11°C° 0 mm 4 mps 734 mmHg 87%
    08:00 +11°C° 0.1 mm 4 mps 734 mmHg 80%
    09:00 +12°C° 0.1 mm 4 mps 734 mmHg 73%
    10:00 +13°C° 0.1 mm 4 mps 735 mmHg 67%
    11:00 +13°C° 0.2 mm 4 mps 735 mmHg 67%
    12:00 +13°C° 0.2 mm 4 mps 735 mmHg 68%
    13:00 +13°C° 0.2 mm 4 mps 735 mmHg 68%
    14:00 +13°C° 0.3 mm 4 mps 735 mmHg 70%
    15:00 +13°C° 0.3 mm 3 mps 736 mmHg 72%
    16:00 +13°C° 0.3 mm 3 mps 736 mmHg 74%
    17:00 +12°C° 0.3 mm 3 mps 736 mmHg 79%
    18:00 +11°C° 0.3 mm 3 mps 736 mmHg 84%
    19:00 +10°C° 0.3 mm 2 mps 737 mmHg 90%
    20:00 +9°C° 0.2 mm 2 mps 737 mmHg 91%
    21:00 +8°C° 0.2 mm 2 mps 737 mmHg 92%
    22:00 +7°C° 0.2 mm 2 mps 737 mmHg 93%
    23:00 +7°C° 0.1 mm 2 mps 737 mmHg 94%
    Show more